Volver al catálogo

SBIRS GEO 6

USA 336

ActivoMilitarGEO
NORAD 53355·PAYLOAD·🇺🇸 United States

Lanzado Aug 4, 2022 desde Cape Canaveral Space Force Station

Loading…

TLE

ActualizadoSource: Space-Track

Época: Sep 14, 2026, 21:18 UTC

1 53355U 22092A   26257.88776726 -.00000299  00000-0  00000-0 0  9990
2 53355   3.1158 319.0781 0001812 211.1634 282.2099  1.00272047 15135

Sigue SBIRS GEO 6 en tiempo real con AllMySat

Download on the App Store